| time (UTC) | temp F | wind direction | speed MPH | gust MPH | rain 1hr in | rain 24hr in | rain mn in | humidity % | barometer mb |
| 20260510152614 | 79 | 40 | 2.0 | 4.0 | 0.00 | 0.00 | 0.00 | 45 | 1016.0 |
| 20260510152111 | 79 | 45 | 2.0 | 3.0 | 0.00 | 0.00 | 0.00 | 46 | 1015.9 |
| 20260510151607 | 78 | 16 | 4.0 | 5.0 | 0.00 | 0.00 | 0.00 | 47 | 1016.0 |
| 20260510151105 | 79 | 8 | 3.0 | 10.0 | 0.00 | 0.00 | 0.00 | 42 | 1016.3 |
| 20260510150600 | 80 | 30 | 2.0 | 5.0 | 0.00 | 0.00 | 0.00 | 42 | 1015.8 |
| 20260510150055 | 79 | 35 | 3.0 | 5.0 | 0.00 | 0.00 | 0.00 | 45 | 1016.0 |
| 20260510145553 | 78 | 9 | 0.0 | 3.0 | 0.00 | 0.00 | 0.00 | 51 | 1015.7 |
| 20260510145049 | 78 | 21 | 3.0 | 5.0 | 0.00 | 0.00 | 0.00 | 48 | 1015.7 |
| 20260510144546 | 77 | 335 | 1.0 | 6.0 | 0.00 | 0.00 | 0.00 | 54 | 1015.8 |
| 20260510144042 | 78 | 65 | 4.0 | 5.0 | 0.00 | 0.00 | 0.00 | 47 | 1015.7 |
| 20260510143537 | 78 | 28 | 2.0 | 3.0 | 0.00 | 0.00 | 0.00 | 50 | 1015.7 |
| 20260510143034 | 76 | 11 | 4.0 | 5.0 | 0.00 | 0.00 | 0.00 | 51 | 1015.7 |
| 20260510142530 | 75 | 19 | 3.0 | 7.0 | 0.00 | 0.00 | 0.00 | 56 | 1016.0 |
| 20260510142027 | 75 | 14 | 4.0 | 11.0 | 0.00 | 0.00 | 0.00 | 53 | 1015.7 |
| 20260510141524 | 75 | 6 | 3.0 | 5.0 | 0.00 | 0.00 | 0.00 | 54 | 1015.8 |
| 20260510141022 | 74 | 18 | 5.0 | 10.0 | 0.00 | 0.00 | 0.00 | 56 | 1015.7 |
| 20260510140517 | 74 | 64 | 2.0 | 9.0 | 0.00 | 0.00 | 0.00 | 57 | 1015.9 |
| 20260510140012 | 75 | 312 | 3.0 | 6.0 | 0.00 | 0.00 | 0.00 | 58 | 1016.0 |
| 20260510135507 | 75 | 6 | 6.0 | 6.0 | 0.00 | 0.00 | 0.00 | 62 | 1015.6 |
| 20260510135004 | 74 | 20 | 2.0 | 5.0 | 0.00 | 0.00 | 0.00 | 62 | 1015.9 |
| 20260510134501 | 73 | 54 | 3.0 | 4.0 | 0.00 | 0.00 | 0.00 | 71 | 1015.8 |
| 20260510133958 | 72 | 59 | 5.0 | 6.0 | 0.00 | 0.00 | 0.00 | 69 | 1015.9 |
| 20260510133454 | 73 | 25 | 4.0 | 5.0 | 0.00 | 0.00 | 0.00 | 70 | 1015.9 |
| 20260510132949 | 70 | 12 | 0.0 | 4.0 | 0.00 | 0.00 | 0.00 | 77 | 1015.8 |
| 20260510132447 | 70 | 22 | 5.0 | 6.0 | 0.00 | 0.00 | 0.00 | 76 | 1015.7 |
| 20260510131944 | 71 | 291 | 1.0 | 5.0 | 0.00 | 0.00 | 0.00 | 78 | 1015.8 |
| 20260510131442 | 70 | 38 | 5.0 | 5.0 | 0.00 | 0.00 | 0.00 | 80 | 1015.8 |
| 20260510130938 | 69 | 19 | 7.0 | 8.0 | 0.00 | 0.00 | 0.00 | 78 | 1015.8 |
| 20260510130435 | 69 | 15 | 5.0 | 5.0 | 0.00 | 0.00 | 0.00 | 82 | 1015.8 |
| 20260510125932 | 69 | 55 | 4.0 | 6.0 | 0.00 | 0.00 | 0.00 | 83 | 1015.6 |
| 20260510125428 | 69 | 38 | 1.0 | 3.0 | 0.00 | 0.00 | 0.00 | 85 | 1015.5 |
| 20260510124925 | 68 | 35 | 2.0 | 3.0 | 0.00 | 0.00 | 0.00 | 87 | 1015.4 |
| 20260510124421 | 66 | 162 | 2.0 | 3.0 | 0.00 | 0.00 | 0.00 | 89 | 1015.6 |
| 20260510123918 | 66 | 89 | 0.0 | 1.0 | 0.00 | 0.00 | 0.00 | 94 | 1015.2 |
| 20260510123414 | 65 | 113 | 0.0 | 2.0 | 0.00 | 0.00 | 0.00 | 95 | 1015.4 |
| 20260510122910 | 64 | 89 | 0.0 | 1.0 | 0.00 | 0.00 | 0.00 | 98 | 1015.3 |
| 20260510122405 | 63 | 105 | 1.0 | 2.0 | 0.00 | 0.00 | 0.00 | 99 | 1015.1 |
| 20260510121902 | 62 | 37 | 0.0 | 1.0 | 0.00 | 0.00 | 0.00 | 99 | 1015.3 |
| 20260510121359 | 61 | 68 | 1.0 | 2.0 | 0.00 | 0.00 | 0.00 | 99 | 1015.1 |
| 20260510120856 | 61 | 38 | 0.0 | 2.0 | 0.00 | 0.00 | 0.00 | 99 | 1015.1 |
| 20260510120354 | 60 | 56 | 1.0 | 1.0 | 0.00 | 0.00 | 0.00 | 99 | 1015.0 |
| 20260510115849 | 59 | 53 | 1.0 | 2.0 | 0.00 | 0.00 | 0.00 | 99 | 1014.9 |
| 20260510115346 | 59 | 82 | 1.0 | 2.0 | 0.00 | 0.00 | 0.00 | 99 | 1014.8 |
| 20260510114842 | 58 | 78 | 1.0 | 2.0 | 0.00 | 0.00 | 0.00 | 99 | 1014.9 |
| 20260510114340 | 58 | 79 | 2.0 | 2.0 | 0.00 | 0.00 | 0.00 | 99 | 1014.9 |
| 20260510113839 | 57 | 75 | 2.0 | 3.0 | 0.00 | 0.00 | 0.00 | 99 | 1014.9 |
| 20260510113336 | 57 | 81 | 1.0 | 3.0 | 0.00 | 0.00 | 0.00 | 99 | 1014.8 |
| 20260510112833 | 56 | 82 | 2.0 | 2.0 | 0.00 | 0.00 | 0.00 | 99 | 1014.5 |
| 20260510112330 | 56 | 67 | 2.0 | 2.0 | 0.00 | 0.00 | 0.00 | 99 | 1014.5 |
| 20260510111826 | 56 | 66 | 2.0 | 2.0 | 0.00 | 0.00 | 0.00 | 99 | 1014.3 |
| 20260510111323 | 56 | 69 | 2.0 | 2.0 | 0.00 | 0.00 | 0.00 | 99 | 1014.2 |
| 20260510110822 | 56 | 58 | 2.0 | 3.0 | 0.00 | 0.00 | 0.00 | 99 | 1014.1 |
| 20260510110320 | 56 | 72 | 2.0 | 2.0 | 0.00 | 0.00 | 0.00 | 99 | 1013.9 |
| 20260510105816 | 56 | 76 | 2.0 | 2.0 | 0.00 | 0.00 | 0.00 | 99 | 1013.8 |
| 20260510105310 | 56 | 80 | 2.0 | 2.0 | 0.00 | 0.00 | 0.00 | 99 | 1013.8 |
| 20260510104807 | 55 | 84 | 2.0 | 2.0 | 0.00 | 0.00 | 0.00 | 99 | 1013.6 |
| 20260510104305 | 55 | 73 | 1.0 | 2.0 | 0.00 | 0.00 | 0.00 | 99 | 1013.8 |
| 20260510103801 | 56 | 71 | 2.0 | 3.0 | 0.00 | 0.00 | 0.00 | 99 | 1013.6 |
| 20260510103257 | 56 | 49 | 3.0 | 3.0 | 0.00 | 0.00 | 0.00 | 99 | 1013.7 |
| 20260510102752 | 56 | 77 | 1.0 | 2.0 | 0.00 | 0.00 | 0.00 | 99 | 1013.4 |
| 20260510102248 | 56 | 76 | 2.0 | 2.0 | 0.00 | 0.00 | 0.00 | 99 | 1013.4 |
| 20260510101746 | 56 | 75 | 1.0 | 2.0 | 0.00 | 0.00 | 0.00 | 99 | 1013.5 |
| 20260510101244 | 56 | 47 | 1.0 | 2.0 | 0.00 | 0.00 | 0.00 | 99 | 1013.6 |
| 20260510100739 | 56 | 94 | 1.0 | 2.0 | 0.00 | 0.00 | 0.00 | 99 | 1013.3 |
| 20260510100238 | 56 | 89 | 1.0 | 2.0 | 0.00 | 0.00 | 0.00 | 99 | 1013.2 |
| 20260510095733 | 56 | 85 | 2.0 | 3.0 | 0.00 | 0.00 | 0.00 | 99 | 1013.4 |
| 20260510095228 | 56 | 88 | 1.0 | 2.0 | 0.00 | 0.00 | 0.00 | 99 | 1013.0 |
| 20260510094727 | 56 | 91 | 2.0 | 2.0 | 0.00 | 0.00 | 0.00 | 99 | 1013.1 |
| 20260510094223 | 56 | 76 | 2.0 | 2.0 | 0.00 | 0.00 | 0.00 | 99 | 1012.7 |
| 20260510093719 | 56 | 83 | 2.0 | 2.0 | 0.00 | 0.00 | 0.00 | 99 | 1012.9 |
| 20260510093217 | 56 | 79 | 2.0 | 2.0 | 0.00 | 0.00 | 0.00 | 99 | 1012.9 |
| 20260510092713 | 56 | 76 | 2.0 | 2.0 | 0.00 | 0.00 | 0.00 | 99 | 1012.6 |
| 20260510092208 | 56 | 59 | 1.0 | 2.0 | 0.00 | 0.00 | 0.00 | 99 | 1012.7 |
| 20260510091704 | 56 | 78 | 2.0 | 2.0 | 0.00 | 0.00 | 0.00 | 99 | 1012.5 |
| 20260510091201 | 56 | 61 | 2.0 | 3.0 | 0.00 | 0.00 | 0.00 | 99 | 1012.5 |
| 20260510090657 | 56 | 63 | 3.0 | 3.0 | 0.00 | 0.00 | 0.00 | 99 | 1012.6 |
| 20260510090154 | 56 | 58 | 2.0 | 2.0 | 0.00 | 0.00 | 0.00 | 99 | 1012.6 |
| 20260510085649 | 56 | 70 | 2.0 | 3.0 | 0.00 | 0.00 | 0.00 | 99 | 1012.3 |
| 20260510085144 | 56 | 73 | 2.0 | 3.0 | 0.00 | 0.00 | 0.00 | 99 | 1012.4 |
| 20260510084641 | 56 | 81 | 1.0 | 2.0 | 0.00 | 0.00 | 0.00 | 99 | 1012.4 |
| 20260510084138 | 57 | 74 | 2.0 | 2.0 | 0.00 | 0.00 | 0.00 | 99 | 1012.3 |
| 20260510083634 | 57 | 68 | 2.0 | 2.0 | 0.00 | 0.00 | 0.00 | 99 | 1012.4 |
| 20260510083131 | 57 | 88 | 1.0 | 2.0 | 0.00 | 0.00 | 0.00 | 99 | 1012.5 |
| 20260510082627 | 57 | 70 | 2.0 | 2.0 | 0.00 | 0.00 | 0.00 | 99 | 1012.5 |
| 20260510082124 | 57 | 69 | 1.0 | 2.0 | 0.00 | 0.00 | 0.00 | 99 | 1012.4 |
| 20260510081623 | 57 | 85 | 2.0 | 2.0 | 0.00 | 0.00 | 0.00 | 99 | 1012.3 |
| 20260510081120 | 56 | 74 | 2.0 | 2.0 | 0.00 | 0.00 | 0.00 | 99 | 1012.1 |
| 20260510080619 | 57 | 73 | 2.0 | 3.0 | 0.00 | 0.00 | 0.00 | 99 | 1012.0 |
| 20260510080116 | 57 | 75 | 2.0 | 2.0 | 0.00 | 0.00 | 0.00 | 99 | 1012.2 |
| 20260510075613 | 57 | 81 | 2.0 | 2.0 | 0.00 | 0.00 | 0.00 | 99 | 1012.1 |
| 20260510075110 | 57 | 79 | 2.0 | 2.0 | 0.00 | 0.00 | 0.00 | 99 | 1012.1 |
| 20260510074608 | 57 | 77 | 2.0 | 3.0 | 0.00 | 0.00 | 0.00 | 99 | 1012.1 |
| 20260510074103 | 57 | 50 | 2.0 | 2.0 | 0.00 | 0.00 | 0.00 | 99 | 1012.1 |
| 20260510073559 | 57 | 62 | 2.0 | 2.0 | 0.00 | 0.00 | 0.00 | 99 | 1012.2 |
| 20260510073056 | 57 | 76 | 1.0 | 2.0 | 0.00 | 0.00 | 0.00 | 99 | 1012.1 |
| 20260510072553 | 57 | 73 | 2.0 | 2.0 | 0.00 | 0.00 | 0.00 | 99 | 1012.3 |
| 20260510072049 | 57 | 80 | 2.0 | 2.0 | 0.00 | 0.00 | 0.00 | 99 | 1012.1 |
| 20260510071545 | 57 | 88 | 2.0 | 2.0 | 0.00 | 0.00 | 0.00 | 99 | 1012.2 |
| 20260510071043 | 57 | 81 | 2.0 | 3.0 | 0.00 | 0.00 | 0.00 | 99 | 1011.9 |
| 20260510070540 | 57 | 82 | 2.0 | 2.0 | 0.00 | 0.00 | 0.00 | 99 | 1012.0 |
| 20260510070037 | 57 | 66 | 2.0 | 2.0 | 0.00 | 0.00 | 0.00 | 99 | 1011.9 |
| 20260510065533 | 57 | 66 | 2.0 | 2.0 | 0.00 | 0.00 | 0.00 | 99 | 1011.8 |
| 20260510065029 | 57 | 70 | 2.0 | 3.0 | 0.00 | 0.00 | 0.00 | 99 | 1011.9 |
| 20260510064526 | 57 | 77 | 2.0 | 2.0 | 0.00 | 0.00 | 0.00 | 99 | 1011.7 |
| 20260510064022 | 57 | 69 | 2.0 | 2.0 | 0.00 | 0.00 | 0.00 | 99 | 1012.1 |
| 20260510063519 | 57 | 69 | 2.0 | 2.0 | 0.00 | 0.00 | 0.00 | 99 | 1012.2 |
| 20260510063017 | 58 | 62 | 2.0 | 3.0 | 0.00 | 0.00 | 0.00 | 99 | 1012.2 |
| 20260510062512 | 58 | 60 | 2.0 | 2.0 | 0.00 | 0.00 | 0.00 | 99 | 1012.2 |
| 20260510062008 | 58 | 63 | 2.0 | 2.0 | 0.00 | 0.00 | 0.00 | 99 | 1012.1 |
| 20260510061504 | 58 | 77 | 2.0 | 2.0 | 0.00 | 0.00 | 0.00 | 99 | 1012.2 |
| 20260510061001 | 58 | 54 | 1.0 | 2.0 | 0.00 | 0.00 | 0.00 | 99 | 1011.8 |
| 20260510060458 | 58 | 56 | 2.0 | 2.0 | 0.00 | 0.00 | 0.00 | 99 | 1012.0 |
| 20260510055954 | 58 | 101 | 2.0 | 2.0 | 0.00 | 0.00 | 0.00 | 99 | 1011.9 |
| 20260510055450 | 58 | 73 | 2.0 | 2.0 | 0.00 | 0.00 | 0.00 | 99 | 1012.1 |
| 20260510054948 | 58 | 76 | 2.0 | 2.0 | 0.00 | 0.00 | 0.00 | 99 | 1012.3 |
| 20260510054443 | 58 | 69 | 2.0 | 2.0 | 0.00 | 0.00 | 0.00 | 99 | 1012.1 |
| 20260510053938 | 58 | 84 | 1.0 | 2.0 | 0.00 | 0.00 | 0.00 | 99 | 1012.0 |
| 20260510053434 | 58 | 76 | 1.0 | 2.0 | 0.00 | 0.00 | 0.00 | 99 | 1012.1 |
| 20260510052930 | 58 | 78 | 1.0 | 2.0 | 0.00 | 0.00 | 0.00 | 99 | 1012.1 |
| 20260510052426 | 58 | 75 | 2.0 | 2.0 | 0.00 | 0.00 | 0.00 | 99 | 1012.2 |
| 20260510051923 | 58 | 87 | 1.0 | 2.0 | 0.00 | 0.00 | 0.00 | 99 | 1012.4 |
| 20260510051419 | 58 | 71 | 2.0 | 3.0 | 0.00 | 0.00 | 0.00 | 99 | 1012.2 |
| 20260510050916 | 58 | 71 | 2.0 | 2.0 | 0.00 | 0.00 | 0.00 | 99 | 1012.3 |
| 20260510050412 | 58 | 65 | 2.0 | 2.0 | 0.00 | 0.00 | 0.00 | 99 | 1012.3 |
| 20260510045910 | 58 | 73 | 1.0 | 2.0 | 0.00 | 0.00 | 0.00 | 99 | 1012.4 |
| 20260510045407 | 58 | 57 | 2.0 | 2.0 | 0.00 | 0.00 | 0.00 | 99 | 1012.5 |
| 20260510044903 | 58 | 73 | 2.0 | 2.0 | 0.00 | 0.00 | 0.00 | 99 | 1012.4 |
| 20260510044400 | 58 | 81 | 2.0 | 3.0 | 0.00 | 0.00 | 0.00 | 99 | 1012.6 |
| 20260510043857 | 58 | 78 | 2.0 | 3.0 | 0.00 | 0.00 | 0.00 | 99 | 1012.2 |
| 20260510043353 | 58 | 71 | 2.0 | 2.0 | 0.00 | 0.00 | 0.00 | 99 | 1012.5 |
| 20260510042851 | 58 | 68 | 2.0 | 2.0 | 0.00 | 0.00 | 0.00 | 99 | 1012.6 |
| 20260510042346 | 58 | 55 | 1.0 | 2.0 | 0.00 | 0.00 | 0.00 | 99 | 1012.8 |
| 20260510041843 | 58 | 51 | 1.0 | 2.0 | 0.00 | 0.00 | 0.00 | 99 | 1012.6 |
| 20260510041340 | 58 | 73 | 2.0 | 2.0 | 0.00 | 0.00 | 0.00 | 99 | 1012.4 |
| 20260510040838 | 58 | 72 | 2.0 | 2.0 | 0.00 | 0.00 | 0.00 | 99 | 1012.4 |
| 20260510040334 | 58 | 68 | 2.0 | 2.0 | 0.00 | 0.00 | 0.00 | 99 | 1012.4 |
| 20260510035830 | 57 | 67 | 2.0 | 2.0 | 0.00 | 0.02 | 0.02 | 99 | 1012.3 |
| 20260510035326 | 58 | 72 | 2.0 | 2.0 | 0.00 | 0.02 | 0.02 | 99 | 1012.3 |
| 20260510034822 | 58 | 55 | 2.0 | 3.0 | 0.00 | 0.02 | 0.02 | 99 | 1012.6 |
| 20260510034320 | 58 | 70 | 2.0 | 2.0 | 0.00 | 0.02 | 0.02 | 99 | 1012.5 |
| 20260510033816 | 57 | 77 | 2.0 | 2.0 | 0.00 | 0.02 | 0.02 | 99 | 1012.4 |
| 20260510033313 | 57 | 75 | 1.0 | 2.0 | 0.00 | 0.02 | 0.02 | 99 | 1012.3 |
| 20260510032809 | 57 | 76 | 2.0 | 2.0 | 0.00 | 0.02 | 0.02 | 99 | 1012.3 |
| 20260510032306 | 57 | 67 | 2.0 | 2.0 | 0.00 | 0.02 | 0.02 | 99 | 1012.4 |
| 20260510031802 | 58 | 67 | 2.0 | 2.0 | 0.00 | 0.02 | 0.02 | 99 | 1012.4 |
| 20260510031257 | 58 | 75 | 2.0 | 3.0 | 0.00 | 0.02 | 0.02 | 99 | 1012.3 |
| 20260510030751 | 57 | 71 | 2.0 | 2.0 | 0.00 | 0.02 | 0.02 | 99 | 1012.3 |
| 20260510030248 | 58 | 73 | 2.0 | 2.0 | 0.00 | 0.02 | 0.02 | 99 | 1012.2 |
| 20260510025745 | 58 | 67 | 2.0 | 2.0 | 0.00 | 0.02 | 0.02 | 99 | 1012.2 |
| 20260510025243 | 58 | 50 | 1.0 | 3.0 | 0.00 | 0.02 | 0.02 | 99 | 1012.3 |
| 20260510024740 | 58 | 76 | 2.0 | 3.0 | 0.00 | 0.02 | 0.02 | 99 | 1012.2 |
| 20260510024236 | 58 | 85 | 2.0 | 3.0 | 0.00 | 0.02 | 0.02 | 99 | 1012.3 |
| 20260510023731 | 58 | 73 | 2.0 | 3.0 | 0.00 | 0.02 | 0.02 | 99 | 1012.2 |
| 20260510023224 | 58 | 65 | 2.0 | 2.0 | 0.00 | 0.02 | 0.02 | 99 | 1012.1 |
| 20260510022720 | 58 | 74 | 2.0 | 3.0 | 0.00 | 0.02 | 0.02 | 99 | 1012.1 |
| 20260510022220 | 58 | 74 | 2.0 | 3.0 | 0.00 | 0.02 | 0.02 | 99 | 1012.1 |
| 20260510021715 | 59 | 66 | 2.0 | 2.0 | 0.00 | 0.02 | 0.02 | 99 | 1012.0 |
| 20260510021213 | 59 | 62 | 2.0 | 2.0 | 0.00 | 0.02 | 0.02 | 99 | 1011.9 |
| 20260510020708 | 59 | 63 | 2.0 | 2.0 | 0.00 | 0.02 | 0.02 | 99 | 1012.2 |
| 20260510020203 | 59 | 65 | 2.0 | 3.0 | 0.00 | 0.02 | 0.02 | 99 | 1012.1 |
| 20260510015659 | 59 | 77 | 2.0 | 3.0 | 0.00 | 0.02 | 0.02 | 99 | 1011.8 |
| 20260510015155 | 60 | 81 | 2.0 | 3.0 | 0.00 | 0.02 | 0.02 | 99 | 1011.9 |
| 20260510014650 | 59 | 82 | 2.0 | 3.0 | 0.00 | 0.02 | 0.02 | 99 | 1011.8 |
| 20260510014148 | 59 | 85 | 2.0 | 3.0 | 0.00 | 0.02 | 0.02 | 99 | 1011.8 |
| 20260510013643 | 59 | 71 | 2.0 | 2.0 | 0.00 | 0.02 | 0.02 | 99 | 1011.7 |
| 20260510013139 | 60 | 78 | 3.0 | 3.0 | 0.00 | 0.02 | 0.02 | 99 | 1011.5 |
| 20260510012638 | 59 | 79 | 2.0 | 2.0 | 0.00 | 0.02 | 0.02 | 97 | 1011.4 |
| 20260510012135 | 60 | 66 | 2.0 | 2.0 | 0.00 | 0.02 | 0.02 | 97 | 1011.3 |
| 20260510011635 | 60 | 69 | 2.0 | 3.0 | 0.00 | 0.02 | 0.02 | 97 | 1011.0 |
| 20260510011131 | 60 | 81 | 2.0 | 3.0 | 0.00 | 0.02 | 0.02 | 97 | 1011.2 |
| 20260510010627 | 61 | 89 | 2.0 | 3.0 | 0.00 | 0.02 | 0.02 | 97 | 1011.2 |
| 20260510010124 | 61 | 85 | 2.0 | 2.0 | 0.00 | 0.02 | 0.02 | 95 | 1011.0 |
| 20260510005619 | 61 | 67 | 2.0 | 2.0 | 0.00 | 0.02 | 0.02 | 94 | 1011.2 |
| 20260510005117 | 62 | 77 | 2.0 | 2.0 | 0.00 | 0.02 | 0.02 | 94 | 1010.7 |
| 20260510004615 | 62 | 79 | 2.0 | 3.0 | 0.00 | 0.02 | 0.02 | 94 | 1010.9 |
| 20260510004113 | 62 | 78 | 2.0 | 2.0 | 0.00 | 0.02 | 0.02 | 92 | 1011.1 |
| 20260510003610 | 62 | 80 | 2.0 | 2.0 | 0.00 | 0.02 | 0.02 | 92 | 1011.1 |
| 20260510003106 | 63 | 64 | 2.0 | 2.0 | 0.00 | 0.02 | 0.02 | 90 | 1010.8 |
| 20260510002600 | 63 | 74 | 1.0 | 2.0 | 0.00 | 0.02 | 0.02 | 90 | 1010.9 |
| 20260510002057 | 63 | 59 | 2.0 | 2.0 | 0.00 | 0.02 | 0.02 | 88 | 1010.7 |
| 20260510001555 | 64 | 67 | 2.0 | 2.0 | 0.00 | 0.02 | 0.02 | 88 | 1010.8 |
| 20260510001054 | 64 | 70 | 2.0 | 2.0 | 0.00 | 0.02 | 0.02 | 87 | 1010.9 |
| 20260510000548 | 65 | 62 | 2.0 | 3.0 | 0.00 | 0.02 | 0.02 | 87 | 1010.9 |
| 20260510000046 | 65 | 65 | 2.0 | 2.0 | 0.00 | 0.02 | 0.02 | 86 | 1011.0 |
| 20260509235542 | 66 | 61 | 2.0 | 2.0 | 0.00 | 0.02 | 0.02 | 86 | 1010.6 |
| 20260509235038 | 66 | 77 | 2.0 | 2.0 | 0.00 | 0.02 | 0.02 | 84 | 1010.8 |
| 20260509234534 | 66 | 80 | 2.0 | 2.0 | 0.00 | 0.02 | 0.02 | 84 | 1010.7 |
| 20260509234033 | 67 | 75 | 2.0 | 2.0 | 0.00 | 0.02 | 0.02 | 84 | 1010.6 |
| 20260509233530 | 68 | 67 | 0.0 | 3.0 | 0.00 | 0.02 | 0.02 | 82 | 1010.5 |
| 20260509233027 | 68 | 79 | 2.0 | 2.0 | 0.00 | 0.02 | 0.02 | 81 | 1010.7 |
| 20260509232524 | 69 | 78 | 2.0 | 2.0 | 0.00 | 0.02 | 0.02 | 79 | 1010.5 |
| 20260509232020 | 69 | 79 | 2.0 | 2.0 | 0.00 | 0.02 | 0.02 | 79 | 1010.4 |
| 20260509231516 | 69 | 55 | 2.0 | 2.0 | 0.00 | 0.02 | 0.02 | 78 | 1010.1 |
| 20260509231015 | 70 | 114 | 1.0 | 2.0 | 0.00 | 0.02 | 0.02 | 77 | 1010.2 |
| 20260509230511 | 70 | 78 | 0.0 | 2.0 | 0.00 | 0.02 | 0.02 | 76 | 1010.1 |
| 20260509230008 | 71 | 51 | 1.0 | 2.0 | 0.00 | 0.02 | 0.02 | 76 | 1010.4 |
| 20260509225503 | 71 | 72 | 1.0 | 2.0 | 0.00 | 0.02 | 0.02 | 76 | 1010.0 |
| 20260509224959 | 72 | 62 | 0.0 | 2.0 | 0.00 | 0.02 | 0.02 | 74 | 1010.0 |
| 20260509224455 | 72 | 233 | 1.0 | 2.0 | 0.00 | 0.02 | 0.02 | 73 | 1010.0 |
| 20260509223952 | 74 | 62 | 0.0 | 2.0 | 0.00 | 0.02 | 0.02 | 70 | 1010.1 |
| 20260509223449 | 75 | 80 | 0.0 | 2.0 | 0.00 | 0.02 | 0.02 | 69 | 1010.0 |
| 20260509222946 | 75 | 169 | 0.0 | 2.0 | 0.00 | 0.02 | 0.02 | 70 | 1009.8 |
| 20260509222441 | 74 | 86 | 2.0 | 3.0 | 0.00 | 0.02 | 0.02 | 73 | 1009.9 |
| 20260509221937 | 74 | 62 | 2.0 | 2.0 | 0.00 | 0.02 | 0.02 | 72 | 1010.0 |
| 20260509221434 | 75 | 80 | 1.0 | 2.0 | 0.00 | 0.02 | 0.02 | 71 | 1010.2 |
| 20260509220930 | 74 | 34 | 0.0 | 2.0 | 0.00 | 0.02 | 0.02 | 72 | 1009.9 |
| 20260509220426 | 73 | 87 | 1.0 | 2.0 | 0.00 | 0.02 | 0.02 | 78 | 1010.2 |
| 20260509215922 | 73 | 25 | 0.0 | 2.0 | 0.00 | 0.02 | 0.02 | 73 | 1010.4 |
| 20260509215418 | 73 | 65 | 0.0 | 0.0 | 0.00 | 0.02 | 0.02 | 73 | 1010.1 |
| 20260509214916 | 73 | 53 | 0.0 | 2.0 | 0.00 | 0.02 | 0.02 | 73 | 1009.9 |
| 20260509214413 | 73 | 49 | 0.0 | 3.0 | 0.00 | 0.02 | 0.02 | 73 | 1010.0 |
| 20260509213910 | 73 | 62 | 0.0 | 2.0 | 0.00 | 0.02 | 0.02 | 74 | 1010.1 |
| 20260509213405 | 74 | 16 | 0.0 | 3.0 | 0.00 | 0.02 | 0.02 | 73 | 1010.0 |
| 20260509212903 | 74 | 37 | 0.0 | 1.0 | 0.00 | 0.02 | 0.02 | 70 | 1010.1 |
| 20260509212400 | 74 | 27 | 0.0 | 2.0 | 0.00 | 0.02 | 0.02 | 74 | 1010.3 |
| 20260509211856 | 73 | 89 | 0.0 | 1.0 | 0.00 | 0.02 | 0.02 | 73 | 1010.2 |
| 20260509211352 | 73 | 147 | 0.0 | 1.0 | 0.00 | 0.02 | 0.02 | 73 | 1010.2 |
| 20260509210849 | 73 | 139 | 1.0 | 3.0 | 0.00 | 0.02 | 0.02 | 73 | 1010.1 |
| 20260509210346 | 74 | 48 | 0.0 | 2.0 | 0.00 | 0.02 | 0.02 | 73 | 1010.2 |
| 20260509205846 | 75 | 117 | 0.0 | 1.0 | 0.00 | 0.02 | 0.02 | 69 | 1010.2 |
| 20260509205341 | 76 | 173 | 0.0 | 2.0 | 0.00 | 0.02 | 0.02 | 67 | 1009.9 |
| 20260509204838 | 76 | 258 | 0.0 | 1.0 | 0.00 | 0.02 | 0.02 | 67 | 1009.9 |
| 20260509204334 | 75 | 135 | 0.0 | 1.0 | 0.00 | 0.02 | 0.02 | 69 | 1010.1 |
| 20260509203830 | 75 | 112 | 0.0 | 2.0 | 0.00 | 0.02 | 0.02 | 68 | 1009.9 |
| 20260509203327 | 74 | 129 | 0.0 | 3.0 | 0.00 | 0.02 | 0.02 | 71 | 1009.7 |
| 20260509202823 | 73 | 92 | 1.0 | 3.0 | 0.00 | 0.02 | 0.02 | 73 | 1010.1 |
| 20260509202320 | 73 | 322 | 0.0 | 1.0 | 0.00 | 0.02 | 0.02 | 73 | 1010.1 |
| 20260509201819 | 73 | 326 | 2.0 | 2.0 | 0.00 | 0.02 | 0.02 | 72 | 1009.8 |
| 20260509201316 | 73 | 129 | 0.0 | 1.0 | 0.00 | 0.02 | 0.02 | 70 | 1010.1 |
| 20260509200812 | 73 | 76 | 0.0 | 1.0 | 0.00 | 0.02 | 0.02 | 73 | 1010.2 |
| 20260509200308 | 73 | 283 | 2.0 | 3.0 | 0.00 | 0.02 | 0.02 | 71 | 1010.3 |
| 20260509195804 | 73 | 269 | 0.0 | 3.0 | 0.00 | 0.02 | 0.02 | 71 | 1010.3 |
| 20260509195259 | 73 | 31 | 0.0 | 3.0 | 0.00 | 0.02 | 0.02 | 72 | 1010.1 |
| 20260509194759 | 71 | 299 | 0.0 | 3.0 | 0.00 | 0.02 | 0.02 | 79 | 1010.3 |
| 20260509194255 | 71 | 72 | 0.0 | 1.0 | 0.00 | 0.02 | 0.02 | 78 | 1010.5 |
| 20260509193753 | 71 | 324 | 0.0 | 2.0 | 0.00 | 0.02 | 0.02 | 76 | 1010.6 |
| 20260509193247 | 71 | 326 | 1.0 | 2.0 | 0.00 | 0.02 | 0.02 | 75 | 1010.7 |
| 20260509192743 | 70 | 142 | 1.0 | 2.0 | 0.00 | 0.02 | 0.02 | 79 | 1010.6 |
| 20260509192238 | 71 | 109 | 0.0 | 2.0 | 0.00 | 0.02 | 0.02 | 77 | 1010.5 |
| 20260509191734 | 71 | 334 | 0.0 | 1.0 | 0.00 | 0.02 | 0.02 | 76 | 1010.8 |
| 20260509191231 | 72 | 291 | 0.0 | 2.0 | 0.00 | 0.02 | 0.02 | 77 | 1010.8 |
| 20260509190727 | 71 | 110 | 0.0 | 1.0 | 0.00 | 0.02 | 0.02 | 79 | 1010.8 |
| 20260509190224 | 71 | 342 | 0.0 | 3.0 | 0.00 | 0.02 | 0.02 | 78 | 1010.9 |
| 20260509185721 | 70 | 11 | 0.0 | 1.0 | 0.00 | 0.02 | 0.02 | 78 | 1010.9 |
| 20260509185217 | 70 | 118 | 1.0 | 1.0 | 0.00 | 0.02 | 0.02 | 80 | 1010.9 |
| 20260509184715 | 69 | 58 | 1.0 | 1.0 | 0.00 | 0.02 | 0.02 | 80 | 1010.8 |
| 20260509184212 | 69 | 85 | 0.0 | 2.0 | 0.00 | 0.02 | 0.02 | 83 | 1010.7 |
| 20260509183708 | 69 | 31 | 2.0 | 2.0 | 0.00 | 0.02 | 0.02 | 80 | 1010.8 |
| 20260509183204 | 69 | 129 | 0.0 | 1.0 | 0.00 | 0.02 | 0.02 | 80 | 1010.9 |
| 20260509182659 | 70 | 114 | 1.0 | 2.0 | 0.00 | 0.02 | 0.02 | 78 | 1010.8 |
| 20260509182157 | 72 | 45 | 0.0 | 2.0 | 0.00 | 0.02 | 0.02 | 74 | 1011.0 |
| 20260509181655 | 71 | 7 | 1.0 | 2.0 | 0.00 | 0.02 | 0.02 | 74 | 1010.9 |
| 20260509181152 | 71 | 297 | 0.0 | 2.0 | 0.00 | 0.02 | 0.02 | 75 | 1011.0 |
| 20260509180649 | 71 | 135 | 0.0 | 2.0 | 0.00 | 0.02 | 0.02 | 76 | 1011.1 |
| 20260509180144 | 70 | 300 | 0.0 | 2.0 | 0.00 | 0.02 | 0.02 | 76 | 1011.1 |
| 20260509175641 | 69 | 129 | 1.0 | 1.0 | 0.00 | 0.02 | 0.02 | 79 | 1011.2 |
| 20260509175138 | 69 | 129 | 1.0 | 2.0 | 0.00 | 0.02 | 0.02 | 79 | 1011.2 |
| 20260509174633 | 70 | 59 | 0.0 | 3.0 | 0.00 | 0.02 | 0.02 | 77 | 1011.3 |
| 20260509174128 | 71 | 167 | 1.0 | 2.0 | 0.00 | 0.02 | 0.02 | 75 | 1011.5 |
| 20260509173625 | 72 | 95 | 3.0 | 3.0 | 0.00 | 0.02 | 0.02 | 75 | 1011.6 |
| 20260509173120 | 72 | 218 | 0.0 | 3.0 | 0.00 | 0.02 | 0.02 | 76 | 1011.7 |
| 20260509172617 | 72 | 334 | 0.0 | 2.0 | 0.00 | 0.02 | 0.02 | 76 | 1011.6 |
| 20260509172114 | 71 | 305 | 2.0 | 3.0 | 0.00 | 0.02 | 0.02 | 75 | 1011.4 |
| 20260509171609 | 72 | 222 | 1.0 | 3.0 | 0.00 | 0.02 | 0.02 | 75 | 1011.5 |
| 20260509171105 | 72 | 207 | 1.0 | 2.0 | 0.00 | 0.02 | 0.02 | 76 | 1011.7 |
| 20260509170602 | 70 | 341 | 0.0 | 4.0 | 0.00 | 0.02 | 0.02 | 77 | 1011.9 |
| 20260509170058 | 71 | 230 | 0.0 | 4.0 | 0.00 | 0.02 | 0.02 | 72 | 1012.0 |
| 20260509165557 | 70 | 156 | 0.0 | 3.0 | 0.00 | 0.02 | 0.02 | 78 | 1012.0 |
| 20260509165052 | 70 | 240 | 0.0 | 2.0 | 0.00 | 0.02 | 0.02 | 75 | 1012.1 |
| 20260509164548 | 71 | 297 | 1.0 | 2.0 | 0.00 | 0.02 | 0.02 | 74 | 1012.2 |
| 20260509164044 | 72 | 285 | 2.0 | 2.0 | 0.00 | 0.02 | 0.02 | 73 | 1012.2 |
| 20260509163543 | 71 | 51 | 2.0 | 3.0 | 0.00 | 0.02 | 0.02 | 72 | 1012.1 |
| 20260509163038 | 70 | 47 | 1.0 | 3.0 | 0.00 | 0.02 | 0.02 | 77 | 1012.2 |
| 20260509162535 | 71 | 222 | 2.0 | 3.0 | 0.00 | 0.02 | 0.02 | 74 | 1012.2 |
| 20260509162031 | 71 | 131 | 0.0 | 2.0 | 0.00 | 0.02 | 0.02 | 72 | 1012.2 |
| 20260509161527 | 70 | 89 | 0.0 | 3.0 | 0.00 | 0.02 | 0.02 | 71 | 1012.2 |
| 20260509161022 | 70 | 91 | 2.0 | 2.0 | 0.00 | 0.02 | 0.02 | 73 | 1012.1 |
| 20260509160518 | 70 | 32 | 2.0 | 4.0 | 0.00 | 0.02 | 0.02 | 72 | 1012.3 |
| 20260509160014 | 70 | 309 | 2.0 | 4.0 | 0.00 | 0.02 | 0.02 | 70 | 1012.2 |
| 20260509155510 | 70 | 124 | 0.0 | 4.0 | 0.00 | 0.02 | 0.02 | 73 | 1012.4 |
| 20260509155006 | 70 | 247 | 0.0 | 1.0 | 0.00 | 0.02 | 0.02 | 72 | 1012.2 |
| 20260509154503 | 70 | 91 | 0.0 | 3.0 | 0.00 | 0.02 | 0.02 | 72 | 1012.2 |
| 20260509154000 | 69 | 53 | 2.0 | 3.0 | 0.00 | 0.02 | 0.02 | 73 | 1012.4 |
| 20260509153457 | 69 | 142 | 0.0 | 2.0 | 0.00 | 0.02 | 0.02 | 72 | 1012.5 |
| 20260509152954 | 69 | 315 | 0.0 | 4.0 | 0.00 | 0.02 | 0.02 | 76 | 1012.3 |